OPS 4682 DEB

Satellite information

Favourite Embed

Satellite Type and Status

DEBRISIN ORBIT

Key statistics

Satellite OPS 4682 DEB at a glance.

Uptime

22073

Days in orbit

Revolutions

≈ 13.0

Per day

Orbit

SSO

Sun Synchronous Orbit

Inclination

90.3

Latest

Satellite identification and parameters

Extended collection of information and parameters for OPS 4682 DEB.

Object identification

Identified? True

Debris? True

Object name: OPS 4682 DEB

International designator: 1965-027FB

Object number (NORAD): 38446

Object ID (CCSDS): 38446

Country: UNITED STATES OF AMERICA (US)

Current information (Y/N): Y

RCS size: SMALL

Orbital parameters

Period: 110.659 minutes

Inclination: 90.2633 deg

SMA: 7635.174 km

Apoapsis: 1270.531 km

Periapsis: 1243.547 km

RAAN: 20.8386 deg

Eccentricy: 0.00176706

Argument of periapsis: 96.6179 deg

Mean anomaly: 263.6956 deg

Mean motion: 13.01290756 rev/day

Mean motion (dot): 0.0000046 rev/day2

B* drag term: 0.001474456 1/REarth

Two-line elements (TLE)

Creation date: Sept. 3, 2025, 10:15 a.m.

Reference frame: TEME

Reference center: EARTH

Epoch: Sept. 3, 2025, 3:05 a.m. UTC

TLE line 0: 0 OPS 4682 DEB

TLE line 1: 1 38446U 65027FB 25246.12872917 .00000460 00000-0 14745-2 0 9994

TLE line 2: 2 38446 90.2633 20.8386 0017671 96.6179 263.6956 13.01290756549949

Live tracking on map

Real-time ground track for satellite OPS 4682 DEB.

In-orbit conjunctions

A list of the most updated potential collisions computed for object OPS 4682 DEB.

Target Orbit TCA Probability of collision Miss distance Type
SECOR 4 (EGRS 4) SSO 2024-09-14 19:49:00 0.0001066161 98.0 (m) PAYLOAD
BREEZE-KM R/B LEO 2024-08-10 09:21:34 0.0004145367 219.0 (m) ROCKET BODY

Associated space launch

Experimental satellite equipped with a nuclear power system and a cesium ion engine.

OPS 4682 DEB was lifted into orbit during the mission ‘Atlas SLV-3 Agena D | SNAPSHOT-1’, on board a Atlas SLV-3 Agena D space rocket.

The launch took place on April 3, 1965, 9:25 p.m. from Space Launch Complex 4E.

For more information about the launch, click the button.

Launch to space Atlas SLV-3 Agena D | SNAPSHOT-1
Atlas SLV-3 Agena D | SNAPSHOT-1

Agency: N/A

Status: Launch Successful

Launch date: April 3, 1965, 9:25 p.m. UTC

Rocket: Atlas SLV-3 Agena D

Launch pad: Space Launch Complex 4E

Location: Vandenberg SFB, CA, USA

...

Latest news about this satellite

There are no fresh news available about this satellite. Check back as we update our databases every day.


Newsletter sign-up

Weekly statistics, charts and insights to help you stay on top of the space industry.